Miscellaneous Local Product
Issued by NWS North Platte, NE

Home | Current Version | Previous Version | Text Only | Print | Product List | Glossary On
Versions: 1 2 3 4 5 6 7 8 9 10 11 12 13 14 15 16 17 18 19 20 21 22 23 24 25 26 27 28 29 30 31 32 33 34 35 36 37 38 39 40 41 42 43 44 45 46 47 48 49 50
867
AXUS43 KLBF 250510
MISLBF


WESTERN AND NORTH CENTRAL NEBRASKA HOURLY WEATHER ROUNDUP
NATIONAL WEATHER SERVICE NORTH PLATTE NE
1200 AM CDT THU AUG 25 2016

NOTE: "FAIR" INDICATES FEW OR NO CLOUDS BELOW 12,000 FEET WITH NO
SIGNIFICANT WEATHER AND/OR OBSTRUCTIONS TO VISIBILITY.

NOTE: STATIONS NOT REPORTING VARIABLES SUCH AS SKY/WEATHER OR
PRESSURE ARE PROVIDED BY RAWS AND APRS NETWORKS AND ARE NOT UNDER
NATIONAL WEATHER SERVICE QUALITY CONTROL.

...OBSERVATIONS IN AND NEAR THE EASTERN PANHANDLE OF NEBRASKA...

CITY           SKY/WX    TMP DP  RH WIND       PRES   REMARKS
PINE RIDGE     LGT RAIN  58  54  86 E8        30.20F
CHADRON        CLOUDY    58  53  84 VRB3      30.20S
ALLIANCE       CLOUDY    56  49  77 NE12      30.22F
SIDNEY         PTCLDY    53  42  66 SE8       30.23F
CRESCENT LAKE    N/A     58  48  69 CALM        N/A
$$

...OBSERVATIONS IN NORTHERN NEBRASKA AND FAR SOUTHERN SOUTH DAKOTA...

CITY           SKY/WX    TMP DP  RH WIND       PRES   REMARKS
WINNER         FAIR      64  52  64 SW8       30.12S
THEDFORD       CLOUDY    60  52  74 CALM      30.19F
AINSWORTH      CLOUDY    61  55  79 CALM      30.17S
O`NEILL        CLOUDY    62  53  72 W5        30.14F
ORD            PTCLDY    61  55  81 CALM      30.14S
BROKEN BOW     PTCLDY    55  53  93 NW3       30.16S
VALENTINE NWR    N/A     58  52  80 CALM        N/A
BUTTE            N/A     61  53  75 W3          N/A
HALSEY           N/A     61  48  62 CALM        N/A
EWING            N/A     59  56  91 CALM        N/A
$$

...OBSERVATIONS IN SOUTHWEST NEBRASKA AND FAR NORTHEAST COLORADO...

CITY           SKY/WX    TMP DP  RH WIND       PRES   REMARKS
HOLYOKE        FAIR      59  50  72 CALM      30.23S
IMPERIAL       PTCLDY    63  44  50 NW3       30.20S
OGALLALA       PTCLDY    55  47  74 SW5       30.21S
NORTH PLATTE   PTCLDY    57  51  80 CALM      30.18F
MCCOOK         MOCLDY    58  52  80 NW7       30.16R
LEXINGTON      PTCLDY    59  54  84 N8        30.15S
STAPLETON        N/A     59  50  72 CALM        N/A
GOTHENBURG       N/A     63  51  64 N3          N/A
CALLAWAY         N/A     56  53  89 CALM        N/A
$$

...OBSERVATIONS IN CENTRAL LINCOLN COUNTY AREA...

CITY           SKY/WX    TMP DP  RH WIND       PRES   REMARKS
N.P. AIRPORT   PTCLDY    57  51  80 CALM      30.18F
N.P. DOWNTOWN    N/A     62  50  65 CALM        N/A
N.P. HILLCREST   N/A     62  50  64 NE9         N/A
$$

...SOME OBSERVATIONS FROM AROUND THE REGION...

CITY           SKY/WX    TMP DP  RH WIND       PRES   REMARKS
DENVER         CLOUDY    56  49  77 SW6       30.25F
LARAMIE        CLOUDY    46  40  79 S9        30.28F
CHEYENNE       CLOUDY    53  46  77 S6        30.28F
SCOTTSBLUFF    MOCLDY    58  48  69 NE14      30.22S
RAPID CITY     CLOUDY    60  44  55 N16       30.22S
BISMARCK       MOCLDY    57  50  77 W14       30.08S
PIERRE         CLEAR     62  49  62 NW10      30.10R
SIOUX FALLS    PTCLDY    62  58  86 CALM      30.07F
GRAND ISLAND   PTCLDY    63  55  75 N5        30.12R
KANSAS CITY    LGT RAIN  70  68  93 S5        30.03F
WICHITA        CLOUDY    74  69  85 SE9       30.03R
OKLAHOMA CITY  PTCLDY    80  69  69 S15       30.04R
DALLAS         PTCLDY    83  69  62 S12       30.05F
AMARILLO       CLOUDY    70  59  68 SW9G22    30.14R
HAYS           CLOUDY    64  52  63 NE8       30.08F
GOODLAND       CLOUDY    56  51  84 N8        30.19S
$$




USA.gov is the U.S. government's official web portal to all federal, state and local government web resources and services.